KUIPER-00085

导读 | 豆包AI

KUIPER-00085是美国亚马逊“柯伊伯计划”中的一颗近地轨道互联网卫星,于2025年7月16日在美国佛罗里达州空军东部试验场发射升空。该卫星运行在平均高度约636公里的近地轨道,倾角51.9度,轨道周期约97.3分钟,目前处于 operational 在轨运行状态。它旨在为全球提供高速卫星宽带互联网服务,是柯伊伯计划构建数千颗卫星星座的组成部分,将与星链项目展开竞争。

Basic Information
目录编号:
64831
目录名称:
KUIPER-00085
国际标识:
2025-151R
轨道中心:
EARTH
卫星名称:
KUIPER-00085
卫星全名:
KUIPER-00085
卫星状态:
在轨 (已飞行241 天)
发射日期:
2025-07-16 UTC
国别 :
美国 (US)
星等 :
--
Orbit Information
数据来源 国际轨道数据 AOE轨道数据
星历时间 2026-03-13T22:08:14+0800
13小时前
查看轨道信息
2026-03-11T15:00:00+0800
2天前
查看轨道信息
半长轴 7007.721km 7007.731km
偏心率 0.0000597 0.0002239
轨道倾角 51.903° 51.912°
近地点辐角 91.692° 129.575°
升交点赤经 270.889° 281.047°
平近点角 268.412° 223.443°
近地点 629.165km 628.024km
远地点 630.003km 631.164km
周期 97.303分钟 97.303分钟
每日圈数 14.799178 14.799147
Detailed Information
使用方式:
暂无
2D Orbit Map
3D Orbit Map
Orbit Altitude Analysis Chart
Orbit Inclination Analysis Chart
Orbit Comprehensive Analysis Chart
View Comprehensive Chart